カタログに戻る

JD 1

運用中科学LEO
NORAD 14728·PAYLOAD·🇺🇸 United States

打ち上げ Feb 5, 1984 から Vandenberg Space Force Base

Loading…

次のパス (今後24時間)

TLE

最新Source: Space-Track

元期: Sep 14, 2026, 03:32 UTC

1 14728U 84012C   26257.14743903  .00001677  00000-0  22947-3 0  9998
2 14728  63.3120 158.0791 0739195 129.9133 236.9316 13.75284247355884

AllMySatでJD 1をリアルタイム追跡

Download on the App Store